Weather History for KFSM - March, 2013

Change the Weather History Date:

Sunday, March 17, 2013

  Actual Average Record
Temperature  
Mean Temperature 59 °F 53 °F  
Max Temperature 69 °F 65 °F 87 °F (1921)
Min Temperature 48 °F 41 °F 22 °F (1892)
Degree Days  
Heating Degree Days 6 12  
Month to date heating degree days 241 243  
Since 1 July heating degree days 2564 2916  
Cooling Degree Days 0 0  
Month to date cooling degree days 2 0  
Year to date cooling degree days 3 1  
Growing Degree Days 7 (Base 50)    
Moisture  
Dew Point 49 °F    
Average Humidity 74    
Maximum Humidity 93    
Minimum Humidity 55    
Precipitation  
Precipitation 0.30 in 0.12 in 3.60 in (1953)
Month to date precipitation 1.96 2.03  
Year to date precipitation 10.39 7.60  
Sea Level Pressure  
Sea Level Pressure 29.74 in    
Wind  
Wind Speed 7 mph (East)    
Max Wind Speed 20 mph    
Max Gust Speed 23 mph    
Visibility 5 miles    
Events Fog , Rain    
T = Trace of Precipitation, MM = Missing Value Source: NWS Daily Summary

Daily Weather History Graph

Daily Weather History Graph

Search for Another Location

Airport or City:

Trip Planner

Search our weather history database for the weather conditions in past years. The results will help you decide how hot, cold, wet, or windy it might be!

Date:

Astronomy

Mar. 17, 2013 Rise Set
Actual Time 7:24 AM CDT 7:26 PM CDT
Civil Twilight 6:59 AM CDT 7:52 PM CDT
Nautical Twilight 6:30 AM CDT 8:21 PM CDT
Astronomical Twilight 6:00 AM CDT 8:51 PM CDT
Moon 10:50 AM CDT (3/17) 12:24 AM CDT (3/17)
Length of Visible Light 12h 52m
Length of Day
12h 02m
Waxing Crescent, 31% of the Moon is Illuminated
Mar 17
Waxing Crescent
Mar 19
First Quarter
Mar 27
Full
Apr 2
Last Quarter
Apr 10
New

Hourly Weather History & Observations

Time (CDT) Temp. Dew Point Humidity Pressure Visibility Wind Dir Wind Speed Gust Speed Precip Events Conditions
12:53 AM 68.0 °F 52.0 °F 56% 29.75 in 10.0 mi Calm Calm - N/A   Overcast
1:53 AM 68.0 °F 52.0 °F 56% 29.74 in 10.0 mi Calm Calm - N/A   Overcast
2:53 AM 68.0 °F 51.1 °F 55% 29.74 in 10.0 mi SE 3.5 mph - N/A   Overcast
3:53 AM 66.9 °F 51.1 °F 57% 29.74 in 10.0 mi Calm Calm - N/A   Overcast
4:53 AM 68.0 °F 53.6 °F 60% 29.74 in 10.0 mi SSW 8.1 mph - N/A   Overcast
5:53 AM 68.0 °F 55.0 °F 63% 29.73 in 10.0 mi South 5.8 mph - N/A   Overcast
6:11 AM 66.2 °F 55.4 °F 68% 29.75 in 10.0 mi South 4.6 mph - N/A   Overcast
6:53 AM 66.9 °F 55.9 °F 68% 29.75 in 10.0 mi South 6.9 mph - N/A   Overcast
7:53 AM 66.0 °F 57.0 °F 73% 29.75 in 10.0 mi East 3.5 mph - N/A   Overcast
8:53 AM 57.9 °F 52.0 °F 81% 29.78 in 6.0 mi NE 11.5 mph - 0.00 in Rain Light Rain
9:27 AM 55.4 °F 51.8 °F 88% 29.80 in 3.0 mi ENE 13.8 mph - 0.01 in Rain Light Rain
9:53 AM 55.0 °F 51.1 °F 86% 29.79 in 3.0 mi East 15.0 mph - 0.02 in Rain Light Rain
10:03 AM 55.4 °F 51.8 °F 88% 29.80 in 2.5 mi East 16.1 mph - 0.01 in Rain Light Rain
10:53 AM 54.0 °F 51.1 °F 90% 29.80 in 2.0 mi East 15.0 mph 20.7 mph 0.02 in Rain Light Rain
11:53 AM 53.1 °F 50.0 °F 89% 29.79 in 2.5 mi East 12.7 mph - 0.01 in   Overcast
12:11 PM 51.8 °F 50.0 °F 94% 29.79 in 1.8 mi ENE 15.0 mph - 0.00 in Rain Light Rain
12:17 PM 51.8 °F 48.2 °F 88% 29.79 in 2.0 mi ENE 12.7 mph - 0.00 in Rain Light Rain
12:53 PM 51.1 °F 48.9 °F 92% 29.77 in 2.5 mi East 12.7 mph - 0.01 in   Overcast
1:53 PM 50.0 °F 48.0 °F 93% 29.75 in 2.5 mi East 13.8 mph - 0.03 in Rain Light Rain
2:53 PM 48.9 °F 46.9 °F 93% 29.73 in 2.5 mi ENE 12.7 mph - 0.02 in Rain Light Rain
3:28 PM 48.2 °F 46.4 °F 93% 29.71 in 2.5 mi ENE 15.0 mph - 0.04 in Rain Heavy Rain
3:53 PM 48.9 °F 46.0 °F 90% 29.69 in 2.5 mi ENE 12.7 mph - 0.08 in   Overcast
4:53 PM 48.9 °F 46.0 °F 90% 29.69 in 3.0 mi East 9.2 mph - 0.01 in Rain Light Rain
5:40 PM 48.2 °F 46.4 °F 93% 29.70 in 2.5 mi ENE 6.9 mph - 0.07 in   Overcast
5:53 PM 48.9 °F 46.0 °F 90% 29.70 in 2.5 mi ENE 8.1 mph - 0.07 in   Overcast
6:30 PM 48.2 °F 46.4 °F 93% 29.70 in 2.5 mi ENE 4.6 mph - 0.00 in Rain Light Rain
6:53 PM 48.9 °F 46.0 °F 90% 29.71 in 2.5 mi East 4.6 mph - 0.01 in Rain Light Rain
7:53 PM 48.9 °F 46.0 °F 90% 29.71 in 2.5 mi NE 3.5 mph - 0.02 in   Overcast
8:53 PM 48.9 °F 46.9 °F 93% 29.72 in 2.5 mi Calm Calm - N/A   Overcast
9:13 PM 48.2 °F 46.4 °F 93% 29.72 in 0.5 mi Calm Calm - N/A Fog Fog
9:53 PM 48.9 °F 46.9 °F 93% 29.72 in 0.5 mi Calm Calm - N/A Fog Fog
10:23 PM 48.2 °F 46.4 °F 93% 29.74 in 1.0 mi Calm Calm - N/A   Overcast
10:53 PM 48.9 °F 46.9 °F 93% 29.74 in 1.5 mi Calm Calm - N/A   Overcast
11:10 PM 50.0 °F 48.2 °F 94% 29.74 in 3.0 mi West 6.9 mph - N/A   Overcast
11:25 PM 50.0 °F 48.2 °F 94% 29.75 in 7.0 mi West 10.4 mph - N/A   Overcast
11:37 PM 50.0 °F 48.2 °F 94% 29.75 in 8.0 mi West 8.1 mph - N/A   Overcast
11:53 PM 50.0 °F 46.9 °F 89% 29.74 in 6.0 mi WNW 6.9 mph - N/A   Overcast